Gbstr 26 Del rocket - Orbit

View from above orbital plane
View from above orbital plane
View from above satellite
View from above satellite

Ground track
Ground track

The orbit data is extracted from the following two-line orbital elements,

1 25876U 99041E   13144.81849605  .00001963  00000-0  38364-3 0  1139
2 25876 051.7656 042.2357 0546550 029.9482 013.1287 14.00863998706263
Epoch (UTC): 24 May 2013 19:38:38
Eccentricity: 0.0546550
inclination: 51.7656°
perigee height: 493 km
apogee height: 1288 km
right ascension of ascending node: 42.2357°
argument of perigee: 29.9482°
revolutions per day: 14.00863998
mean anomaly at epoch: 13.1287°
orbit number at epoch: 70626

The dashed part of the orbit path shows where the satellite is in the earth's shadow,  

Developed and maintained by Chris Peat, Heavens-Above GmbH. Please read the updated FAQ before sending e-mail. Imprint. DLR